PLATFORM,ARGOS_ID,DATE (YYYY/MM/DD HH:MI:SS),LATITUDE (degree_north),LONGITUDE (degree_east),TEMP LEVEL0 (degree_Celsius),EWCT LEVEL0 (meter/second),NSCT LEVEL0 (meter/second),NSCT LEVEL1 (meter/second),EWCT LEVEL1 (meter/second),QC,SC40_GNRL_BattVolt,SC40_GNRL_Submergence
62779,24568,2005/09/10 00:01:00,48.3430,-5.1780,16.602,,,,,0011119999,10.35,199
62779,24568,2005/09/10 01:00:00,48.3240,-5.1750,16.211,0.0943386,-0.896072,-0.596809,0.062645,0011110000,10.35,215
62779,24568,2005/09/10 02:01:00,48.3140,-5.1730,15.859,0.0608303,-0.456024,-0.303811,0.040406,0011110000,10.29,214
62779,24568,2005/09/10 03:00:00,48.3160,-5.1700,15.664,0.0943386,0.094289,0.062822,0.062668,0011110000,10.35,246
62779,24568,2005/09/10 04:01:00,48.3280,-5.1690,15.312,0.0304152,0.547261,0.364574,0.020202,0011110000,10.24,255
62779,24568,2005/09/10 05:00:00,48.3470,-5.1710,14.844,-0.0628924,0.896143,0.596809,-0.04176,0011110000,10.35,255
62779,24568,2005/09/10 06:00:00,48.3700,-5.1780,15.156,-0.216455,1.06717,0.710412,-0.143666,0011110000,10.35,255
62779,24568,2005/09/10 07:01:00,48.3960,-5.1870,14.883,-0.273736,1.18716,0.789909,-0.181598,0011110000,10.35,255
62779,24568,2005/09/10 08:01:00,48.4180,-5.1920,14.766,-0.15461,1.02175,0.679525,-0.102521,0011110000,10.35,255
62779,24568,2005/09/10 09:00:00,48.4300,-5.1960,15.586,-0.125785,0.566953,0.376932,-0.083379,0011110000,10.35,255
62779,24568,2005/09/10 10:00:00,48.4270,-5.1950,15.43,0.0309221,-0.139388,-0.092662,0.020496,0011110000,10.35,255
62779,24568,2005/09/10 11:01:00,48.4100,-5.1850,15.352,0.304152,-0.776765,-0.516479,0.201635,0011110000,10.29,255
62779,24568,2005/09/10 12:01:00,48.3840,-5.1740,15.508,0.340143,-1.20728,-0.803074,0.22559,0011110000,10.35,230
62779,24568,2005/09/10 13:00:00,48.3630,-5.1590,15.039,0.471693,-0.991178,-0.659631,0.312982,0011110000,10.35,238
62779,24568,2005/09/10 14:00:00,48.3480,-5.1460,14.531,0.401987,-0.695937,-0.463312,0.266824,0011110000,10.29,255
62779,24568,2005/09/10 15:01:00,48.3430,-5.1360,15.312,0.304152,-0.228131,-0.151906,0.201924,0011110000,10.35,255
62779,24568,2005/09/10 16:00:00,48.3490,-5.1300,15.273,0.188677,0.28304,0.188466,0.12526,0011110000,10.35,254
62779,24568,2005/09/10 17:01:00,48.3640,-5.1290,15.039,0.0304152,0.684542,0.455717,0.020188,0011110000,10.35,255
62779,24568,2005/09/10 18:00:00,48.3820,-5.1320,14.922,-0.0943386,0.849573,0.565398,-0.062597,0011110000,10.35,255
62779,24568,2005/09/10 19:01:00,48.3990,-5.1380,15.039,-0.182491,0.776335,0.516479,-0.121048,0011110000,10.24,255
62779,24568,2005/09/10 20:01:00,48.4110,-5.1440,14.688,-0.185532,0.557295,0.37065,-0.12303,0011110000,10.24,255
62779,24568,2005/09/10 21:00:00,48.4190,-5.1470,14.141,-0.0943386,0.377902,0.251288,-0.062545,0011110000,10.35,255
62779,24568,2005/09/10 22:01:00,48.4150,-5.1470,14.023,2.70141e-13,-0.182763,-0.121525,0,0011110000,10.35,250
62779,24568,2005/09/10 23:01:00,48.4030,-5.1400,13.945,0.216455,-0.557339,-0.37065,0.143524,0011110000,10.18,235
62779,24568,2005/09/11 00:00:00,48.3880,-5.1340,13.867,0.188677,-0.708292,-0.471165,0.125139,0011110000,10.35,211
62779,24568,2005/09/11 01:00:00,48.3760,-5.1280,13.945,0.185532,-0.557041,-0.37065,0.123086,0011110000,10.35,195
62779,24568,2005/09/11 02:01:00,48.3570,-5.1120,13.906,0.486643,-0.867258,-0.577241,0.322946,0011110000,10.35,169
62779,24568,2005/09/11 03:00:00,48.3400,-5.0930,13.867,0.597477,-0.801986,-0.533987,0.396638,0011110000,10.35,163
62779,24568,2005/09/11 04:00:00,48.3320,-5.0880,13.867,0.15461,-0.371024,-0.2471,0.102664,0011110000,10.35,127
62779,24568,2005/09/11 05:01:00,48.3370,-5.0940,14.258,-0.182491,0.228082,0.151906,-0.121181,0011110000,10.24,140
62779,24568,2005/09/11 06:00:00,48.3490,-5.1040,14.414,-0.314462,0.566046,0.376932,-0.208779,0011110000,10.35,131
62779,24568,2005/09/11 07:00:00,48.3630,-5.1120,14.414,-0.247377,0.649548,0.432425,-0.164198,0011110000,10.35,124
62779,24568,2005/09/11 08:01:00,48.3730,-5.1180,14.336,-0.182491,0.456465,0.303811,-0.121101,0011110000,10.24,131
62779,24568,2005/09/11 09:00:00,48.3770,-5.1230,14.375,-0.157231,0.188801,0.125644,-0.104324,0011110000,10.24,97
62779,24568,2005/09/11 10:00:00,48.3740,-5.1230,14.531,3.02108e-13,-0.139242,-0.092662,0,0011110000,10.35,61
62779,24568,2005/09/11 11:00:00,48.3640,-5.1230,14.922,3.02108e-13,-0.464082,-0.308875,0,0011110000,10.35,21
62779,24568,2005/09/11 12:01:00,48.3470,-5.1200,14.883,0.0912455,-0.775799,-0.516479,0.060565,0011110000,10.35,0
62779,24568,2005/09/11 13:00:00,48.3300,-5.1160,15.039,0.125785,-0.801828,-0.533987,0.083519,0011110000,10.35,0
62779,24568,2005/09/11 14:00:00,48.3150,-5.1130,15.391,0.0927662,-0.695484,-0.463312,0.061615,0011110000,10.35,0
62779,24568,2005/09/11 15:01:00,48.3050,-5.1130,15.469,2.70141e-14,-0.455943,-0.303811,0,0011110000,10.24,0
62779,24568,2005/09/11 16:01:00,48.3050,-5.1130,15.312,2.74643e-14,0,0,0,0011110000,10.24,5
62779,24568,2005/09/11 17:01:00,48.3130,-5.1140,14.883,-0.0309221,0.370826,0.2471,-0.020544,0011110000,10.29,3
62779,24568,2005/09/11 18:00:00,48.3250,-5.1170,14.883,-0.0943386,0.565779,0.376932,-0.062663,0011110000,10.35,16
62779,24568,2005/09/11 19:00:00,48.3400,-5.1210,15.586,-0.123688,0.695621,0.463312,-0.082137,0011110000,10.35,4
62779,24568,2005/09/11 20:00:00,48.3550,-5.1250,15.625,-0.123688,0.695827,0.463312,-0.082113,0011110000,10.35,32
62779,24568,2005/09/11 21:01:00,48.3650,-5.1260,15.625,-0.0304152,0.456393,0.303811,-0.020187,0011110000,10.35,47
62779,24568,2005/09/11 22:01:00,48.3700,-5.1240,15.703,0.0618442,0.232034,0.154437,0.04104,0011110000,10.35,43
62779,24568,2005/09/11 23:00:00,48.3670,-5.1190,15.703,0.157231,-0.141583,-0.094233,0.104337,0011110000,10.35,5
62779,24568,2005/09/12 00:01:00,48.3580,-5.1140,15.703,0.152076,-0.410774,-0.27343,0.100928,0011110000,10.29,0
62779,24568,2005/09/12 01:00:00,48.3460,-5.1090,15.703,0.157231,-0.566147,-0.376932,0.104371,0011110000,10.35,5
62779,24568,2005/09/12 02:00:00,48.3340,-5.1040,15.625,0.15461,-0.556579,-0.37065,0.102656,0011110000,10.35,0
62779,24568,2005/09/12 03:00:00,48.3260,-5.1010,15.703,0.0927662,-0.37098,-0.2471,0.061606,0011110000,10.24,0
62779,24568,2005/09/12 04:01:00,48.3240,-5.1030,15.156,-0.0608303,-0.0912155,-0.060762,-0.040401,0011110000,10.24,0
62779,24568,2005/09/12 05:00:00,48.3270,-5.1060,15.586,-0.0943386,0.141463,0.094233,-0.062655,0011110000,10.35,0
62779,24568,2005/09/12 06:01:00,48.3370,-5.1130,15.586,-0.212906,0.456141,0.303811,-0.141384,0011110000,10.35,0
62779,24568,2005/09/12 07:00:00,48.3520,-5.1210,15.625,-0.251569,0.707579,0.471165,-0.167019,0011110000,10.35,0
62779,24568,2005/09/12 08:00:00,48.3640,-5.1290,15.508,-0.247377,0.556777,0.37065,-0.164191,0011110000,10.29,0
62779,24568,2005/09/12 09:00:00,48.3700,-5.1350,15.078,-0.185532,0.278438,0.185325,-0.123122,0011110000,10.35,0
62779,24568,2005/09/12 10:01:00,48.3720,-5.1420,14.883,-0.212906,0.0912984,0.060762,-0.141276,0011110000,10.35,8
62779,24568,2005/09/12 11:00:00,48.3690,-5.1480,15,-0.188677,-0.141588,-0.094233,-0.1252,0011110000,10.29,20
62779,24568,2005/09/12 12:01:00,48.3600,-5.1540,15.078,-0.182491,-0.41079,-0.27343,-0.121109,0011110000,10.35,2
62779,24568,2005/09/12 13:01:00,48.3490,-5.1610,15.078,-0.216455,-0.510344,-0.339762,-0.143677,0011110000,10.29,18
62779,24568,2005/09/12 14:01:00,48.3370,-5.1710,15.273,-0.309221,-0.556612,-0.37065,-0.2053,0011110000,10.35,34
62779,24568,2005/09/12 15:01:00,48.3270,-5.1800,15.039,-0.278299,-0.463743,-0.308875,-0.18481,0011110000,10.35,62
62779,24568,2005/09/12 16:01:00,48.3220,-5.1870,14.922,-0.216455,-0.231837,-0.154437,-0.143762,0011110000,10.35,42
62779,24568,2005/09/12 17:00:00,48.3210,-5.1950,14.766,-0.251569,-0.0471505,-0.031411,-0.167094,0011110000,10.35,68
62779,24568,2005/09/12 18:00:00,48.3220,-5.1970,14.922,-0.0618442,0.0463647,0.030887,-0.041077,0011110000,10.35,100
62779,24568,2005/09/12 19:01:00,48.3260,-5.2020,15.156,-0.152076,0.182427,0.121525,-0.101005,0011110000,10.24,131
62779,24568,2005/09/12 20:01:00,48.3350,-5.2090,14.961,-0.216455,0.417356,0.277987,-0.143745,0011110000,10.35,163
62779,24568,2005/09/12 21:00:00,48.3460,-5.2180,14.844,-0.283016,0.51885,0.345521,-0.187911,0011110000,10.24,189
62779,24568,2005/09/12 22:01:00,48.3570,-5.2260,14.609,-0.243321,0.501948,0.334192,-0.16152,0011110000,10.35,227
62779,24568,2005/09/12 23:00:00,48.3640,-5.2320,14.57,-0.188677,0.330308,0.219877,-0.125225,0011110000,10.35,255
62779,24568,2005/09/13 00:01:00,48.3680,-5.2360,14.57,-0.121661,0.182579,0.121525,-0.080737,0011110000,10.29,230
62779,24568,2005/09/13 01:01:00,48.3690,-5.2380,14.492,-0.0618442,0.0464077,0.030887,-0.041039,0011110000,10.24,196
62779,24568,2005/09/13 02:00:00,48.3650,-5.2370,14.531,0.0314462,-0.188772,-0.125644,0.020868,0011110000,10.24,168
62779,24568,2005/09/13 03:00:00,48.3560,-5.2360,14.57,0.0309221,-0.417604,-0.277987,0.020523,0011110000,10.24,138
62779,24568,2005/09/13 04:01:00,48.3460,-5.2320,15.078,0.121661,-0.456312,-0.303811,0.080761,0011110000,10.35,100
62779,24568,2005/09/13 05:01:00,48.3370,-5.2310,15.039,0.0309221,-0.417447,-0.277987,0.020531,0011110000,10.35,60
62779,24568,2005/09/13 06:00:00,48.3320,-5.2310,14.961,1.67579e-13,-0.235813,-0.157055,0,0011110000,10.24,21
62779,24568,2005/09/13 07:00:00,48.3320,-5.2340,14.883,-0.0927662,0,0,-0.061603,0011110000,10.35,0
62779,24568,2005/09/13 08:01:00,48.3380,-5.2370,14.883,-0.0912455,0.273701,0.182287,-0.06059,0011110000,10.35,0
62779,24568,2005/09/13 09:00:00,48.3480,-5.2410,14.883,-0.125785,0.471705,0.31411,-0.083512,0011110000,10.35,0
62779,24568,2005/09/13 10:00:00,48.3610,-5.2440,15,-0.0927662,0.603134,0.401537,-0.061576,0011110000,10.35,0
62779,24568,2005/09/13 11:01:00,48.3730,-5.2470,15.586,-0.0912455,0.547747,0.364574,-0.060552,0011110000,10.24,0
62779,24568,2005/09/13 12:00:00,48.3810,-5.2480,15.625,-0.0314462,0.377618,0.251288,-0.020864,0011110000,10.35,0
62779,24568,2005/09/13 13:01:00,48.3820,-5.2460,16.484,0.0608303,0.0456587,0.030381,0.040356,0011110000,10.24,0
62779,24568,2005/09/13 14:01:00,48.3760,-5.2390,15.898,0.216455,-0.278504,-0.185325,0.143608,0011110000,10.29,0
62779,24568,2005/09/13 15:00:00,48.3650,-5.2360,16.016,0.0943386,-0.519158,-0.345521,0.0626,0011110000,10.41,0
62779,24568,2005/09/13 16:01:00,48.3500,-5.2330,16.016,0.0912455,-0.684555,-0.455717,0.060563,0011110000,10.41,0
62779,24568,2005/09/13 17:01:00,48.3370,-5.2340,15.898,-0.0309221,-0.603003,-0.401537,-0.02053,0011110000,10.41,0
62779,24568,2005/09/13 18:00:00,48.3280,-5.2380,15.586,-0.125785,-0.424447,-0.282699,-0.083529,0011110000,10.41,0
62779,24568,2005/09/13 19:01:00,48.3250,-5.2460,15.312,-0.243321,-0.136827,-0.091143,-0.1616,0011110000,10.29,0
62779,24568,2005/09/13 20:01:00,48.3270,-5.2560,15.273,-0.309221,0.0927376,0.061775,-0.205368,0011110000,10.35,0
62779,24568,2005/09/13 21:01:00,48.3360,-5.2680,15.273,-0.371065,0.417365,0.277987,-0.246415,0011110000,10.35,0
62779,24568,2005/09/13 22:00:00,48.3510,-5.2770,15.43,-0.32741,0.561245,0.471165,-0.1879,0011110000,10.35,0
62779,24568,2005/09/13 23:01:00,48.3680,-5.2810,15.664,-0.121661,0.77586,0.516479,-0.080748,0011110000,10.35,0
62779,24568,2005/09/14 00:01:00,48.3820,-5.2770,15.664,0.123688,0.649792,0.432425,0.082068,0011110000,10.29,0
62779,24568,2005/09/14 01:00:00,48.3900,-5.2750,15.625,0.0628924,0.377685,0.251288,0.041721,0011110000,10.41,0
62779,24568,2005/09/14 02:01:00,48.3880,-5.2740,15.234,0.0304152,-0.0913309,-0.060762,0.020175,0011110000,10.35,0
62779,24568,2005/09/14 03:00:00,48.3810,-5.2800,15.352,-0.188677,-0.330465,-0.219877,-0.125166,0011110000,10.35,0
62779,24568,2005/09/14 04:00:00,48.3700,-5.2910,15.273,-0.340143,-0.510556,-0.339762,-0.225686,0011110000,10.35,0
62779,24568,2005/09/14 05:01:00,48.3600,-5.3050,15.078,-0.425812,-0.456438,-0.303811,-0.282586,0011110000,10.24,0
62779,24568,2005/09/14 06:00:00,48.3530,-5.3180,15,-0.4088,-0.330282,-0.219877,-0.271341,0011110000,10.24,1
62779,24568,2005/09/14 07:01:00,48.3500,-5.3300,14.961,-0.364982,-0.136895,-0.091143,-0.242281,0011110000,10.35,4
62779,24568,2005/09/14 08:00:00,48.3530,-5.3370,15.078,-0.220123,0.141535,0.094233,-0.146121,0011110000,10.35,4
62779,24568,2005/09/14 09:01:00,48.3640,-5.3410,15.156,-0.121661,0.502017,0.334192,-0.080749,0011110000,10.29,35
62779,24568,2005/09/14 10:01:00,48.3790,-5.3360,15.352,0.15461,0.696157,0.463312,0.102592,0011110000,10.35,63
62779,24568,2005/09/14 11:00:00,48.3970,-5.3250,15.703,0.345908,0.849825,0.565398,0.229455,0011110000,10.35,101
62779,24568,2005/09/14 12:01:00,48.4150,-5.3070,15.586,0.547473,0.822254,0.54686,0.363032,0011110000,10.41,107
62779,24568,2005/09/14 13:01:00,48.4290,-5.2890,15.547,0.556597,0.650396,0.432425,0.368966,0011110000,10.35,135
62779,24568,2005/09/14 14:01:00,48.4370,-5.2740,15.508,0.463831,0.371736,0.2471,0.307406,0011110000,10.29,142
62779,24568,2005/09/14 15:00:00,48.4370,-5.2670,15.703,0.220123,-1.57851e-12,0,0.145876,0011110000,10.41,162
62779,24568,2005/09/14 16:01:00,48.4270,-5.2690,15.586,-0.0608303,-0.457043,-0.303811,-0.040316,0011110000,10.41,200
62779,24568,2005/09/14 17:01:00,48.4090,-5.2770,15.508,-0.247377,-0.836157,-0.555975,-0.163998,0011110000,10.41,234
62779,24568,2005/09/14 18:01:00,48.3880,-5.2870,15.195,-0.309221,-0.97514,-0.648637,-0.205076,0011110000,10.24,255
62779,24568,2005/09/14 19:00:00,48.3700,-5.2970,15.352,-0.314462,-0.849674,-0.565398,-0.208632,0011110000,10.35,255
62779,24568,2005/09/14 20:01:00,48.3580,-5.3060,15.234,-0.273736,-0.547715,-0.364574,-0.181666,0011110000,10.35,255
62779,24568,2005/09/14 21:01:00,48.3550,-5.3130,15.664,-0.216455,-0.13919,-0.092662,-0.143672,0011110000,10.35,226
62779,24568,2005/09/14 22:01:00,48.3580,-5.3160,15.781,-0.0927662,0.13919,0.092662,-0.061574,0011110000,10.41,198
62779,24568,2005/09/14 23:00:00,48.3720,-5.3190,15.703,-0.0943386,0.660674,0.439754,-0.062607,0011110000,10.35,217
62779,24568,2005/09/15 00:01:00,48.3930,-5.3190,15.703,-5.13268e-13,0.958851,0.638004,0,0011110000,10.41,237
62779,24568,2005/09/15 01:01:00,48.4150,-5.3140,15.742,0.15461,1.02169,0.679525,0.102527,0011110000,10.35,255
62779,24568,2005/09/15 02:01:00,48.4320,-5.3060,15.43,0.247377,0.78979,0.525087,0.16398,0011110000,10.24,255
62779,24568,2005/09/15 03:01:00,48.4410,-5.3020,15.703,0.123688,0.418232,0.277987,0.081969,0011110000,10.35,255
62779,24568,2005/09/15 04:01:00,48.4390,-5.3000,15.781,0.0618442,-0.0929468,-0.061775,0.040982,0011110000,10.41,255
62779,24568,2005/09/15 05:01:00,48.4250,-5.3050,15.586,-0.15461,-0.650524,-0.432425,-0.102471,0011110000,10.35,255
62779,24568,2005/09/15 06:01:00,48.4050,-5.3140,15.43,-0.278299,-0.929008,-0.61775,-0.184509,0011110000,10.24,255
62779,24568,2005/09/15 07:01:00,48.3830,-5.3260,15.234,-0.371065,-1.02148,-0.679525,-0.246113,0011110000,10.24,255
62779,24568,2005/09/15 08:01:00,48.3630,-5.3350,15.234,-0.278299,-0.928237,-0.61775,-0.184661,0011110000,10.35,255
62779,24568,2005/09/15 09:00:00,48.3510,-5.3420,15.469,-0.220123,-0.566203,-0.376932,-0.146105,0011110000,10.35,255
62779,24568,2005/09/15 10:01:00,48.3530,-5.3500,15.625,-0.243321,0.0912641,0.060762,-0.161519,0011110000,10.24,255
62779,24568,2005/09/15 11:01:00,48.3670,-5.3540,15.781,-0.123688,0.649599,0.432425,-0.082093,0011110000,10.35,255
62779,24568,2005/09/15 12:01:00,48.3890,-5.3540,15.625,4.66894e-13,1.02116,0.679525,0,0011110000,10.35,255
62779,24568,2005/09/15 13:02:00,48.4150,-5.3520,16.25,0.0608303,1.18761,0.789909,0.04034,0011110000,10.24,255
62779,24568,2005/09/15 14:00:00,48.4390,-5.3440,15.82,0.255907,1.15353,0.766862,0.169623,0011110000,10.35,255
62779,24568,2005/09/15 15:01:00,48.4530,-5.3340,16.484,0.304152,0.640038,0.425336,0.201526,0011110000,10.35,255
62779,24568,2005/09/15 16:01:00,48.4550,-5.3280,16.797,0.185532,0.0929726,0.061775,0.122911,0011110000,10.29,255
62779,24568,2005/09/15 17:02:00,48.4410,-5.3310,17.148,-0.0912455,-0.640063,-0.425336,-0.060455,0011110000,10.41,255
62779,24568,2005/09/15 18:01:00,48.4170,-5.3410,17.578,-0.314462,-1.13402,-0.753864,-0.208427,0011110000,10.41,255
62779,24568,2005/09/15 19:00:00,48.3880,-5.3580,17.734,-0.534585,-1.36955,-0.910919,-0.354511,0011110000,10.41,255
62779,24568,2005/09/15 20:01:00,48.3600,-5.3760,18.047,-0.547473,-1.27825,-0.850672,-0.36326,0011110000,10.24,255
62779,24568,2005/09/15 21:01:00,48.3450,-5.3960,18.008,-0.618442,-0.695896,-0.463312,-0.410523,0011110000,10.41,255
62779,24568,2005/09/15 22:00:00,48.3450,-5.4100,17.93,-0.440247,0,0,-0.29228,0011110000,10.41,255
62779,24568,2005/09/15 23:01:00,48.3580,-5.4170,17.734,-0.212906,0.593211,0.394955,-0.14133,0011110000,10.41,255
62779,24568,2005/09/16 00:01:00,48.3820,-5.4150,17.695,0.0618442,1.11382,0.7413,0.041038,0011110000,10.41,255
62779,24568,2005/09/16 01:00:00,48.4120,-5.4050,17.656,0.314462,1.41663,0.94233,0.208558,0011110000,10.41,255
62779,24568,2005/09/16 02:01:00,48.4400,-5.3900,17.539,0.456227,1.27957,0.850672,0.302408,0011110000,10.41,255
62779,24568,2005/09/16 03:01:00,48.4610,-5.3770,17.461,0.401987,0.976144,0.648637,0.266326,0011110000,10.41,255
62779,24568,2005/09/16 04:01:00,48.4700,-5.3660,17.266,0.340143,0.418472,0.277987,0.225286,0011110000,10.29,255
62779,24568,2005/09/16 05:01:00,48.4660,-5.3620,17.188,0.123688,-0.185997,-0.12355,0.081918,0011110000,10.29,255
62779,24568,2005/09/16 06:02:00,48.4490,-5.3700,17.227,-0.243321,-0.777366,-0.516479,-0.161184,0011110000,10.35,255
62779,24568,2005/09/16 07:01:00,48.4240,-5.3880,17.109,-0.566031,-1.18145,-0.785275,-0.375113,0011110000,10.29,255
62779,24568,2005/09/16 08:01:00,48.3930,-5.4060,16.914,-0.556597,-1.43978,-0.957512,-0.369064,0014410000,10.41,255
62779,24568,2005/09/16 09:01:00,48.3700,-5.4280,16.914,-0.680286,-1.06765,-0.710412,-0.451318,0011110000,10.41,255
62779,24568,2005/09/16 10:01:00,48.3580,-5.4480,16.758,-0.618442,-0.556843,-0.37065,-0.41043,0011110000,10.41,255
62779,24568,2005/09/16 11:01:00,48.3620,-5.4620,16.758,-0.432909,0.1856,0.12355,-0.287324,0011110000,10.24,255
62779,24568,2005/09/16 12:02:00,48.3820,-5.4710,16.602,-0.273736,0.913002,0.607623,-0.181637,0011110000,10.18,255
62779,24568,2005/09/16 13:01:00,48.4130,-5.4710,16.602,-1.11719e-13,1.46386,0.973741,0,0011110000,10.24,255
62779,24568,2005/09/16 14:00:00,48.4470,-5.4610,16.562,0.314462,1.60656,1.06797,0.208423,0014410000,10.35,255
62779,24568,2005/09/16 15:02:00,48.4770,-5.4450,16.523,0.478794,1.34982,0.896733,0.317141,0011110000,10.24,255
62779,24568,2005/09/16 16:01:00,48.4970,-5.4290,16.445,0.503139,0.946102,0.62822,0.333102,0011110000,10.35,255
62779,24568,2005/09/16 17:01:00,48.5030,-5.4160,16.445,0.401987,0.279172,0.185325,0.266067,0011110000,10.29,255
62779,24568,2005/09/16 18:00:00,48.4930,-5.4130,16.25,0.0943386,-0.473154,-0.31411,0.062443,0011110000,10.35,255
62779,24568,2005/09/16 19:01:00,48.4710,-5.4220,16.25,-0.273736,-1.00649,-0.668385,-0.181245,0011110000,10.35,255
62779,24568,2005/09/16 20:02:00,48.4390,-5.4370,16.289,-0.456227,-1.4632,-0.972196,-0.302235,0011110000,10.24,255
62779,24568,2005/09/16 21:01:00,48.4060,-5.4550,16.25,-0.566031,-1.55908,-1.03656,-0.375216,0014410000,10.35,255
62779,24568,2005/09/16 22:00:00,48.3830,-5.4740,16.211,-0.597477,-1.08603,-0.722453,-0.39628,0011110000,10.35,255
62779,24568,2005/09/16 23:01:00,48.3780,-5.4910,16.211,-0.517058,-0.228289,-0.151906,-0.343035,0011110000,10.24,255
62779,24568,2005/09/17 00:01:00,48.3910,-5.4990,16.211,-0.247377,0.603491,0.401537,-0.164106,0011110000,10.35,255
62779,24568,2005/09/17 01:01:00,48.4170,-5.4980,16.211,0.0309221,1.20745,0.803074,0.020505,0011110000,10.35,255
62779,24568,2005/09/17 02:01:00,48.4500,-5.4870,16.133,0.340143,1.53342,1.01929,0.225428,0014410000,10.35,255
62779,24568,2005/09/17 03:01:00,48.4820,-5.4660,16.055,0.649364,1.48791,0.988399,0.430088,0014410000,10.29,255
62779,24568,2005/09/17 04:00:00,48.5060,-5.4420,16.094,0.754708,1.13548,0.753864,0.499584,0011110000,10.29,255
62779,24568,2005/09/17 05:01:00,48.5170,-5.4190,15.977,0.699549,0.50354,0.334192,0.462911,0011110000,10.35,255
62779,24568,2005/09/17 06:01:00,48.5130,-5.4060,15.938,0.401987,-0.18617,-0.12355,0.265988,0011110000,10.35,255
62779,24568,2005/09/17 07:01:00,48.4950,-5.4070,15.938,-0.0309221,-0.837583,-0.555975,-0.020465,0011110000,10.24,255
62779,24568,2005/09/17 08:00:00,48.4660,-5.4200,16.055,-0.4088,-1.37167,-0.910919,-0.27068,0011110000,10.35,255
62779,24568,2005/09/17 09:01:00,48.4300,-5.4380,16.094,-0.547473,-1.64588,-1.09372,-0.362732,0014410000,10.41,255
62779,24568,2005/09/17 10:01:00,48.4020,-5.4580,16.172,-0.618442,-1.30064,-0.864849,-0.410011,0011110000,10.41,255
62779,24568,2005/09/17 11:01:00,48.3890,-5.4740,16.211,-0.494753,-0.603622,-0.401537,-0.328141,0011110000,10.24,255
62779,24568,2005/09/17 12:01:00,48.3950,-5.4840,16.25,-0.309221,0.278576,0.185325,-0.205102,0011110000,10.41,255
62779,24568,2005/09/17 13:01:00,48.4190,-5.4820,16.25,0.0618442,1.11463,0.7413,0.041008,0011110000,10.41,255
62779,24568,2005/09/17 14:02:00,48.4550,-5.4650,16.094,0.517058,1.64552,1.09372,0.342655,0014410000,10.24,255
62779,24568,2005/09/17 15:01:00,48.4910,-5.4400,16.211,0.786155,1.70251,1.1308,0.520616,0014410000,10.24,255
62779,24568,2005/09/17 16:00:00,48.5220,-5.4100,16.016,0.943386,1.46703,0.973741,0.624327,0014410000,10.41,255
62779,24568,2005/09/17 17:01:00,48.5410,-5.3820,15.938,0.851625,0.870097,0.577241,0.563322,0011110000,10.29,255
62779,24568,2005/09/17 18:01:00,48.5430,-5.3610,15.977,0.649364,0.093135,0.061775,0.429444,0011110000,10.41,255
62779,24568,2005/09/17 19:00:00,48.5240,-5.3580,15.898,0.0943386,-0.899627,-0.596809,0.062399,0011110000,10.41,255
62779,24568,2005/09/17 20:01:00,48.4880,-5.3700,15.938,-0.364982,-1.64777,-1.09372,-0.241545,0014410000,10.29,255
62779,24568,2005/09/17 21:01:00,48.4420,-5.3930,16.055,-0.711208,-2.13884,-1.42082,-0.471058,0014410000,10.41,255
62779,24568,2005/09/17 22:00:00,48.4010,-5.4190,16.172,-0.817601,-1.93699,-1.28785,-0.54199,0014410000,10.41,252
62779,24568,2005/09/17 23:01:00,48.3770,-5.4460,16.133,-0.821209,-1.09597,-0.729147,-0.54473,0011110000,10.41,246
62779,24568,2005/09/18 00:01:00,48.3750,-5.4660,16.055,-0.618442,-0.0928292,-0.061775,-0.410334,0011110000,10.41,255
62779,24568,2005/09/18 01:01:00,48.3940,-5.4770,16.055,-0.340143,0.882026,0.586862,-0.225646,0011110000,10.41,255
62779,24568,2005/09/18 02:01:00,48.4310,-5.4750,16.172,0.0618442,1.71858,1.14284,0.041004,0014410000,10.41,255
62779,24568,2005/09/18 03:01:00,48.4740,-5.4580,16.133,0.525675,1.99885,1.32816,0.348259,0014410000,10.41,255
62779,24568,2005/09/18 04:01:00,48.5140,-5.4300,16.25,0.865818,1.86093,1.2355,0.573134,0014410000,10.41,255
62779,24568,2005/09/18 05:01:00,48.5430,-5.3960,16.016,1.05135,1.3501,0.895737,0.695475,0014410000,10.41,255
62779,24568,2005/09/18 06:01:00,48.5550,-5.3670,15.742,0.89674,0.558888,0.37065,0.592959,0011110000,10.24,255
62779,24568,2005/09/18 07:00:00,48.5500,-5.3510,15.742,0.503139,-0.236833,-0.157055,0.332672,0011110000,10.41,255
62779,24568,2005/09/18 08:01:00,48.5230,-5.3480,16.406,0.0912455,-1.23658,-0.82029,0.06035,0011110000,10.41,255
62779,24568,2005/09/18 09:01:00,48.4760,-5.3600,16.367,-0.371065,-2.18683,-1.45171,-0.245602,0014410000,10.41,248
62779,24568,2005/09/18 10:01:00,48.4260,-5.3830,16.68,-0.711208,-2.32418,-1.54437,-0.471188,0014410000,10.41,226
62779,24568,2005/09/18 11:01:00,48.3880,-5.4090,17.07,-0.803974,-1.76484,-1.17372,-0.533109,0014410000,10.41,186
62779,24568,2005/09/18 12:01:00,48.3740,-5.4300,17.539,-0.649364,-0.649869,-0.432425,-0.430808,0011110000,10.41,145
62779,24568,2005/09/18 13:01:00,48.3850,-5.4440,18.047,-0.432909,0.510596,0.339762,-0.287214,0011110000,10.41,105
62779,24568,2005/09/18 14:01:00,48.4170,-5.4470,18.242,-0.0927662,1.486,0.988399,-0.06152,0011110000,10.41,65
62779,24568,2005/09/18 15:01:00,48.4610,-5.4350,18.047,0.371065,2.04479,1.35905,0.245895,0014410000,10.41,25
62779,24568,2005/09/18 16:01:00,48.5060,-5.4080,16.797,0.834896,2.09311,1.38994,0.55278,0014410000,10.41,15
62779,24568,2005/09/18 17:01:00,48.5410,-5.3720,16.367,1.11319,1.62926,1.08106,0.736458,0014410000,10.24,1
62779,24568,2005/09/18 18:01:00,48.5610,-5.3370,16.016,1.08227,0.931517,0.61775,0.715612,0011110000,10.29,0